Miscellaneous Local Product
Issued by NWS North Platte, NE

Home | Current Version | Previous Version | Text Only | Print | Product List | Glossary On
Versions: 1 2 3 4 5 6 7 8 9 10 11 12 13 14 15 16 17 18 19 20 21 22 23 24 25 26 27 28 29 30 31 32 33 34 35 36 37 38 39 40 41 42 43 44 45 46 47 48 49 50
958
AXUS43 KLBF 161310
MISLBF


WESTERN AND NORTH CENTRAL NEBRASKA HOURLY WEATHER ROUNDUP
NATIONAL WEATHER SERVICE NORTH PLATTE NE
800 AM CDT WED AUG 16 2017

NOTE: "FAIR" INDICATES FEW OR NO CLOUDS BELOW 12,000 FEET WITH NO
SIGNIFICANT WEATHER AND/OR OBSTRUCTIONS TO VISIBILITY.

NOTE: STATIONS NOT REPORTING VARIABLES SUCH AS SKY/WEATHER OR
PRESSURE ARE PROVIDED BY RAWS AND APRS NETWORKS AND ARE NOT UNDER
NATIONAL WEATHER SERVICE QUALITY CONTROL.

...OBSERVATIONS IN AND NEAR THE EASTERN PANHANDLE OF NEBRASKA...

CITY           SKY/WX    TMP DP  RH WIND       PRES   REMARKS
PINE RIDGE     CLOUDY    60  59  96 NW8       29.97R
GORDON         CLOUDY    60  57  91 N9        29.96R
CHADRON        CLOUDY    61  58  90 CALM      29.99R
ALLIANCE       CLOUDY    58  55  90 NW10      29.97R
SIDNEY         CLOUDY    58  55  90 NW10      30.01R
CRESCENT LAKE    N/A     60  59  98 NW8         N/A
$$

...OBSERVATIONS IN NORTHERN NEBRASKA AND FAR SOUTHERN SOUTH DAKOTA...

CITY           SKY/WX    TMP DP  RH WIND       PRES   REMARKS
WINNER         CLOUDY    67  65  93 W5        29.84R
VALENTINE      CLOUDY    64  59  83 W5        29.88R
THEDFORD       CLOUDY    61  60  96 NW8       29.90F
AINSWORTH      CLOUDY    62  62  99 CALM      29.87F
O`NEILL        CLOUDY    64  64 100 NE6       29.85R
ORD            LGT RAIN  63  60  90 NW7       29.83R FOG
BROKEN BOW     CLOUDY    62  60  93 NW12      29.86R
HALSEY           N/A     59  59  99 W6          N/A
BUTTE            N/A     63  62  97 N3          N/A
CHAMBERS         N/A     63  62  97 NE3         N/A
EWING            N/A     64  63  97 CALM        N/A
$$

...OBSERVATIONS IN SOUTHWEST NEBRASKA AND FAR NORTHEAST COLORADO...

CITY           SKY/WX    TMP DP  RH WIND       PRES   REMARKS
HOLYOKE        FAIR      61  59  94 W7        29.97R
IMPERIAL       CLOUDY    62  58  86 W5        29.94R
OGALLALA       CLOUDY    63  60  91 W6        29.93F
NORTH PLATTE   MOSUNNY   61  59  93 NW8       29.90R
MCCOOK         CLOUDY    62  61  96 W12       29.92R
LEXINGTON      MOSUNNY   61  59  93 NW10      29.86R
STAPLETON        N/A     58  57  97 CALM        N/A
GOTHENBURG       N/A     60  56  88 NW6         N/A
CALLAWAY         N/A     59  58  97 NW9         N/A
$$

...OBSERVATIONS IN CENTRAL LINCOLN COUNTY AREA...

CITY           SKY/WX    TMP DP  RH WIND       PRES   REMARKS
N.P. AIRPORT   MOSUNNY   61  59  93 NW8       29.90R
N.P. DOWNTOWN    N/A     87  67  50 CALM        N/A
N.P. SOUTHEAST   N/A     60  58  94 NW3         N/A
N.P. HILLCREST   N/A     60  59  96 NW5         N/A
$$

...SOME OBSERVATIONS FROM AROUND THE REGION...

CITY           SKY/WX    TMP DP  RH WIND       PRES   REMARKS
DENVER         MOCLDY    58  54  86 NE5       30.10R
LIMON          PTCLDY    53  51  93 NW10      30.09R
ASPEN          CLOUDY    46  38  73 SW5       30.24R
LARAMIE        CLOUDY    45  43  93 CALM      30.19R
CASPER         CLEAR     48  47  96 SW7       30.12R
CHEYENNE       CLOUDY    52  45  77 NW9       30.11R
SCOTTSBLUFF    CLEAR     58  55  90 NW8       30.01R
GRAND ISLAND   LGT RAIN  63  63 100 NE5       29.75F
OMAHA          CLOUDY    74  69  85 SE9       29.78R
SIOUX FALLS    LGT RAIN  66  66 100 E5        29.84S FOG
PIERRE         CLOUDY    64  62  93 N14       29.85R
RAPID CITY     CLOUDY    60  55  83 N12       29.97R
BISMARCK       CLOUDY    61  59  93 N12       29.91R
KANSAS CITY    TSTM      73  72  96 S10       29.85S FOG
HILL CITY      CLOUDY    63  62  97 W9        29.89R
WICHITA        CLOUDY    74  72  93 S6        29.85R
DODGE CITY     CLOUDY    65  62  90 NE13G20   29.89R
OKLAHOMA CITY  CLOUDY    75  71  87 S13       29.85R
DALLAS         CLOUDY    82  74  76 S15       29.90R
AMARILLO       CLEAR     68  66  93 W7        29.94R
$$




USA.gov is the U.S. government's official web portal to all federal, state and local government web resources and services.